Flag for Costa Rica Weather past 2 weeks in Alajuela, Costa Rica

Now
68 °F

Sunny.


Feels Like: 68 °F
Forecast: 67 / 82 °F
Wind: 5 mph from Northeast

Location: Juan Santamaria

Current Time: Oct 24, 2014 at 6:20:40 AM

Latest Report: Oct 24, 2014 at 6:00 AM


Visibility: 10 mi

Pressure: 30.02 "Hg

Humidity: 83%

Dew point: 63 °F

Location of AlajuelaLocation

Historic Weather in Alajuela — Graph

°F

Alajuela temperature yesterday

Maximum temperature yesterday: 81 °F (at 12:00 PM)
Minimum temperature yesterday: 64 °F (at 5:00 AM)
Average temperature yesterday: 72 °F

Past Weeks' High & Low Weather Summary

 TemperatureHumidityPressure
High84 °F (Oct 16, 10:00 AM)100% (Oct 10, 7:00 PM)30.12 "Hg (Oct 10, 7:00 PM)
Low64 °F (Oct 10, 5:00 AM)51% (Oct 16, 10:00 AM)29.88 "Hg (Oct 20, 3:00 PM)
Average71 °F87%30.00 "Hg
* Reported Oct 9 5:00 AM — Oct 24 5:00 AM, Alajuela, Weather by CustomWeather, © 2014

Note: Actual official high and low records may vary slightly from our data, if they occured in-between our weather recording intervals... More about our weather records

Advertising

Alajuela weather history for previous 24 hours

 ConditionsComfort  
Time TempWeatherWind HumidityBarometerVisibility
5:00 AM
Oct 24
66 °FPassing clouds.No wind88%30.00 "HgN/A
4:00 AM68 °FPassing clouds.3 mph88%29.98 "HgN/A
3:00 AM66 °FPassing clouds.No wind94%29.98 "HgN/A
2:00 AM68 °FPassing clouds.3 mph94%29.99 "HgN/A
1:00 AM68 °FFog.No wind94%30.00 "Hg5 mi
12:00 AM70 °FFog.No wind94%30.02 "Hg3 mi
11:00 PM
Oct 23
70 °FFog.5 mph94%30.03 "Hg5 mi
10:00 PM70 °FPassing clouds.No wind94%30.05 "HgN/A
9:00 PM70 °FPassing clouds.2 mph94%30.06 "HgN/A
8:00 PM70 °FPartly cloudy.2 mph94%30.05 "HgN/A
7:00 PM70 °FPassing clouds.2 mph94%30.02 "HgN/A
6:00 PM70 °FThundershowers. Partly cloudy.7 mph94%29.99 "HgN/A
5:00 PM72 °FLight rain. Broken clouds.7 mph88%29.97 "HgN/A
4:00 PM75 °FScattered clouds.14 mph78%29.94 "HgN/A
3:00 PM77 °FScattered clouds.13 mph79%29.94 "HgN/A
2:00 PM81 °FScattered clouds.15 mph70%29.95 "HgN/A
1:00 PM81 °FPassing clouds.14 mph66%29.97 "HgN/A
12:00 PM81 °FScattered clouds.14 mph66%30.00 "HgN/A
11:00 AM79 °FScattered clouds.12 mph70%30.03 "HgN/A
10:00 AM79 °FScattered clouds.12 mph65%30.05 "HgN/A
9:00 AM79 °FScattered clouds.6 mph65%30.07 "HgN/A
8:00 AM75 °FScattered clouds.No wind74%30.06 "HgN/A
7:00 AM72 °FSunny.3 mph83%30.06 "Hg10 mi
6:00 AM64 °FScattered clouds.2 mph100%30.00 "HgN/A
Weather by CustomWeather, © 2014

See weather overviewHow to use our weather pages